CW6770 Weather Reports


time (UTC)temp
C
wind
direction
speed
KPH
gust
KPH
rain 1hr
cm
rain 24hr
cm
rain mn
cm
humidity
%
barometer
mb
20260508100526 2 0 0.0 3.2 0.00 0.00 0.00 83 1007.9
20260508100056 2 236 0.0 4.8 0.00 0.00 0.00 83 1008.0
20260508095530 2 0 1.6 4.8 0.00 0.00 0.00 83 1007.8
20260508095030 2 236 1.6 4.8 0.00 0.00 0.00 83 1007.7
20260508094540 2 236 1.6 4.8 0.00 0.00 0.00 83 1007.7
20260508094108 2 236 0.0 1.6 0.00 0.00 0.00 83 1007.7
20260508093530 2 0 0.0 3.2 0.00 0.00 0.00 83 1007.7
20260508093041 2 0 0.0 3.2 0.00 0.00 0.00 83 1007.7
20260508092526 2 0 0.0 3.2 0.00 0.00 0.00 83 1007.5
20260508092027 2 236 1.6 3.2 0.00 0.00 0.00 83 1007.6
20260508091559 2 236 1.6 4.8 0.00 0.00 0.00 83 1007.5
20260508091031 2 236 1.6 4.8 0.00 0.00 0.00 83 1007.4
20260508090529 2 236 1.6 4.8 0.00 0.00 0.00 83 1007.4
20260508090114 2 236 1.6 3.2 0.00 0.00 0.00 83 1007.3
20260508085526 2 236 1.6 3.2 0.00 0.00 0.00 83 1007.2
20260508085026 2 236 1.6 3.2 0.00 0.00 0.00 83 1007.1
20260508084535 2 0 0.0 1.6 0.00 0.00 0.00 83 1007.0
20260508084026 2 0 0.0 3.2 0.00 0.00 0.00 84 1007.1
20260508083527 2 0 0.0 3.2 0.00 0.00 0.00 84 1007.2
20260508083036 2 0 0.0 3.2 0.00 0.00 0.00 84 1007.1
20260508082526 2 0 0.0 4.8 0.00 0.00 0.00 83 1007.2
20260508082026 2 0 1.6 4.8 0.00 0.00 0.00 83 1007.2
20260508081559 2 236 1.6 3.2 0.00 0.00 0.00 82 1007.2
20260508081031 2 236 0.0 3.2 0.00 0.00 0.00 82 1007.2
20260508080530 2 0 0.0 0.0 0.00 0.00 0.00 83 1007.2
20260508080041 2 0 0.0 1.6 0.00 0.00 0.00 83 1007.0
20260508075527 2 0 0.0 4.8 0.00 0.03 0.00 84 1006.9
20260508075029 2 0 0.0 4.8 0.00 0.03 0.00 84 1006.9
20260508074537 2 236 1.6 4.8 0.00 0.03 0.00 84 1006.9
20260508074029 1 236 1.6 4.8 0.00 0.03 0.00 84 1006.9
20260508073527 1 236 1.6 4.8 0.00 0.03 0.00 83 1006.9
20260508073049 2 236 1.6 4.8 0.00 0.03 0.00 83 1006.9
20260508072526 2 236 1.6 3.2 0.00 0.03 0.00 83 1007.0
20260508072027 2 236 0.0 3.2 0.00 0.03 0.00 83 1006.9
20260508071539 2 236 0.0 4.8 0.00 0.03 0.00 83 1006.9
20260508071026 2 236 1.6 4.8 0.00 0.03 0.00 83 1007.0
20260508070528 2 236 3.2 4.8 0.00 0.03 0.00 83 1007.0
20260508070045 2 236 1.6 4.8 0.00 0.03 0.00 83 1006.9
20260508065526 2 236 1.6 3.2 0.00 0.10 0.00 82 1007.0
20260508065030 2 0 0.0 0.0 0.00 0.10 0.00 82 1007.1
20260508064542 2 0 0.0 1.6 0.00 0.10 0.00 82 1007.1
20260508064029 2 0 0.0 3.2 0.00 0.10 0.00 82 1007.1
20260508063529 2 0 0.0 3.2 0.00 0.10 0.00 83 1007.1
20260508063040 2 236 1.6 3.2 0.00 0.10 0.00 82 1007.1
20260508062528 2 236 1.6 4.8 0.00 0.10 0.00 82 1007.2
20260508062026 2 236 1.6 4.8 0.00 0.10 0.00 81 1007.2
20260508061541 2 236 1.6 4.8 0.00 0.10 0.00 81 1007.3
20260508061027 2 0 0.0 4.8 0.00 0.10 0.00 81 1007.2
20260508060527 2 0 1.6 4.8 0.00 0.10 0.00 80 1007.4
20260508060054 2 236 3.2 4.8 0.00 0.10 0.00 80 1007.4
20260508055527 3 236 3.2 4.8 0.00 0.48 0.00 80 1007.5
20260508055026 3 236 1.6 4.8 0.00 0.48 0.00 80 1007.5
20260508054610 3 0 0.0 3.2 0.00 0.48 0.00 79 1007.5
20260508054027 3 236 1.6 4.8 0.00 0.48 0.00 79 1007.6
20260508053526 3 236 0.0 4.8 0.00 0.48 0.00 78 1007.4
20260508053050 3 236 1.6 4.8 0.00 0.48 0.00 78 1007.3
20260508052527 3 236 1.6 3.2 0.00 0.48 0.00 78 1007.4
20260508052028 3 0 0.0 0.0 0.00 0.48 0.00 78 1007.5
20260508051541 3 0 0.0 4.8 0.00 0.48 0.00 77 1007.6
20260508051054 3 0 0.0 4.8 0.00 0.48 0.00 77 1007.5
20260508050527 3 236 1.6 4.8 0.00 0.48 0.00 77 1007.5
20260508050039 4 236 3.2 4.8 0.00 0.48 0.00 76 1007.5
20260508045526 4 236 3.2 4.8 0.00 0.48 0.00 76 1007.7
20260508045026 4 236 0.0 4.8 0.00 0.48 0.00 75 1007.7
20260508044537 4 0 0.0 0.0 0.00 0.48 0.00 75 1007.7
20260508044026 4 0 0.0 1.6 0.00 0.48 0.00 75 1007.7
20260508043527 4 0 0.0 3.2 0.00 0.48 0.00 75 1007.7
20260508043037 5 0 0.0 3.2 0.00 0.48 0.00 75 1007.7
20260508042526 5 236 0.0 3.2 0.00 0.48 0.00 74 1007.7
20260508042026 5 0 0.0 3.2 0.00 0.48 0.00 73 1007.6
20260508041545 5 0 0.0 1.6 0.00 0.48 0.00 72 1007.9
20260508041028 5 0 0.0 1.6 0.00 0.48 0.00 70 1007.7
20260508040603 6 0 0.0 3.2 0.00 0.48 0.00 71 1007.7
20260508040043 6 0 0.0 3.2 0.00 0.48 0.00 70 1007.8
20260508035527 6 0 0.0 3.2 0.00 0.51 0.48 70 1007.8
20260508035027 6 0 0.0 3.2 0.00 0.51 0.48 70 1007.9
20260508034547 6 0 0.0 3.2 0.00 0.51 0.48 69 1007.8
20260508034029 6 236 0.0 4.8 0.00 0.51 0.48 69 1007.9
20260508033527 6 0 0.0 4.8 0.00 0.51 0.48 70 1008.0
20260508033037 5 0 0.0 4.8 0.00 0.51 0.48 72 1008.0
20260508032527 5 236 0.0 4.8 0.00 0.51 0.48 73 1007.9
20260508032027 5 0 1.6 3.2 0.00 0.51 0.48 73 1007.8
20260508031536 5 236 0.0 3.2 0.00 0.51 0.48 73 1007.8
20260508031027 5 236 0.0 4.8 0.00 0.51 0.48 73 1007.7
20260508030529 6 236 0.0 4.8 0.00 0.51 0.48 72 1007.8
20260508030046 6 0 0.0 4.8 0.00 0.51 0.48 71 1007.7
20260508025529 6 236 0.0 4.8 0.00 0.81 0.48 69 1007.7
20260508025027 6 236 1.6 4.8 0.00 0.81 0.48 70 1007.6
20260508024544 6 236 1.6 4.8 0.00 0.81 0.48 70 1007.5
20260508024029 6 0 1.6 4.8 0.00 0.81 0.48 69 1007.5
20260508023530 7 236 1.6 4.8 0.00 0.81 0.48 68 1007.5
20260508023039 7 236 1.6 4.8 0.00 0.81 0.48 67 1007.5
20260508022602 7 236 1.6 3.2 0.00 0.81 0.48 65 1007.6
20260508022531 7 236 1.6 3.2 0.00 0.81 0.48 65 1007.6
20260508022027 8 236 0.0 3.2 0.00 0.81 0.48 61 1007.6
20260508021537 8 0 0.0 3.2 0.00 0.81 0.48 59 1007.6
20260508021031 8 0 0.0 3.2 0.00 0.81 0.48 56 1007.6
20260508020526 9 0 0.0 3.2 0.00 0.81 0.48 55 1007.7
20260508020035 9 0 0.0 8.0 0.00 0.81 0.48 55 1007.7
20260508015528 9 0 0.0 14.5 0.00 1.17 0.48 55 1007.8
20260508015026 9 0 1.6 14.5 0.00 1.17 0.48 54 1007.8
20260508014539 10 13 1.6 11.3 0.00 1.17 0.48 55 1007.8
20260508014026 10 5 1.6 14.5 0.00 1.17 0.48 54 1007.8
20260508013527 10 305 3.2 14.5 0.00 1.17 0.48 54 1007.8
20260508013042 10 62 1.6 16.1 0.00 1.17 0.48 54 1007.7
20260508012527 10 230 3.2 16.1 0.00 1.17 0.48 55 1007.7
20260508012030 10 0 1.6 22.5 0.00 1.17 0.48 55 1007.7
20260508011535 10 11 1.6 22.5 0.00 1.17 0.48 54 1007.6
20260508011058 10 301 3.2 17.7 0.00 1.17 0.48 55 1007.5
20260508011028 10 301 3.2 17.7 0.00 1.17 0.48 55 1007.5
20260508010526 10 19 6.4 17.7 0.00 1.17 0.48 56 1007.4
20260508010047 10 330 1.6 12.9 0.00 1.17 0.48 58 1007.3
20260508005601 10 0 1.6 14.5 0.00 1.47 0.48 58 1007.4
20260508005526 10 0 1.6 14.5 0.00 1.47 0.48 58 1007.4
20260508005027 10 0 1.6 17.7 0.00 1.47 0.48 59 1007.3
20260508004538 10 282 3.2 17.7 0.00 1.47 0.48 61 1007.3
20260508004027 10 9 1.6 11.3 0.00 1.47 0.48 65 1007.2
20260508003530 10 360 1.6 9.7 0.00 1.47 0.48 69 1007.1
20260508003040 10 0 0.0 8.0 0.00 1.47 0.48 74 1006.9
20260508002528 9 215 1.6 8.0 0.00 1.47 0.48 75 1006.9
20260508002027 9 98 1.6 8.0 0.00 1.47 0.48 79 1006.8
20260508001535 8 0 0.0 3.2 0.00 1.47 0.48 81 1006.8
20260508001026 9 0 0.0 4.8 0.00 1.47 0.48 81 1006.7
20260508000529 9 0 0.0 4.8 0.00 1.47 0.48 81 1006.5
20260508000036 9 0 0.0 4.8 0.00 1.47 0.48 81 1006.5
20260507235526 9 0 0.0 1.6 0.00 1.75 0.48 80 1006.4
20260507235026 9 0 0.0 1.6 0.00 1.75 0.48 80 1006.3
20260507234544 9 0 0.0 0.0 0.00 1.75 0.48 79 1006.2
20260507234026 10 0 0.0 0.0 0.00 1.75 0.48 79 1006.0
20260507233527 10 0 0.0 0.0 0.00 1.75 0.48 79 1006.0
20260507233129 10 0 0.0 0.0 0.00 1.75 0.48 79 1005.9
20260507233043 10 0 0.0 0.0 0.00 1.75 0.48 79 1005.9
20260507232525 10 0 0.0 1.6 0.00 1.75 0.48 78 1005.8
20260507232026 10 0 0.0 3.2 0.00 1.75 0.48 78 1005.8
20260507231544 10 0 0.0 3.2 0.00 1.75 0.48 78 1005.5
20260507231030 10 146 0.0 4.8 0.00 1.75 0.48 78 1005.4
20260507230527 10 0 0.0 4.8 0.00 1.75 0.48 77 1005.3
20260507230113 11 145 1.6 4.8 0.00 1.75 0.48 77 1005.5
20260507225528 11 0 0.0 3.2 0.00 1.85 0.48 77 1005.3
20260507225027 11 0 0.0 0.0 0.00 1.85 0.48 77 1005.3
20260507224604 11 0 0.0 0.0 0.00 1.85 0.48 76 1005.2
20260507224026 11 0 0.0 0.0 0.00 1.85 0.48 76 1005.1
20260507223527 11 0 0.0 0.0 0.00 1.85 0.48 76 1005.1
20260507223035 11 0 0.0 1.6 0.00 1.85 0.48 76 1005.0
20260507222528 11 0 0.0 1.6 0.00 1.85 0.48 76 1005.0
20260507222026 11 0 0.0 4.8 0.00 1.85 0.48 76 1005.0
20260507221537 11 0 0.0 4.8 0.00 1.85 0.48 76 1005.1
20260507221031 11 0 0.0 3.2 0.00 1.85 0.48 77 1005.1
20260507220526 11 0 0.0 3.2 0.00 1.85 0.48 77 1005.2
20260507220036 11 0 0.0 1.6 0.00 1.85 0.48 77 1005.3
20260507215527 11 143 0.0 4.8 0.00 1.91 0.48 76 1005.2
20260507215026 11 0 0.0 4.8 0.00 1.91 0.48 76 1005.2
20260507214558 11 248 0.0 4.8 0.00 1.91 0.48 76 1005.3
20260507214025 11 248 0.0 8.0 0.00 1.91 0.48 76 1005.3
20260507213532 11 248 0.0 8.0 0.00 1.91 0.48 76 1005.3
20260507213036 11 248 0.0 8.0 0.00 1.91 0.48 75 1005.5
20260507212526 11 0 0.0 8.0 0.00 1.91 0.48 75 1005.4
20260507212026 12 0 1.6 8.0 0.00 1.91 0.48 75 1005.5
20260507211542 12 0 0.0 6.4 0.00 1.91 0.48 74 1005.4
20260507211030 12 0 0.0 6.4 0.00 1.91 0.48 73 1005.4
20260507210527 12 0 0.0 6.4 0.00 1.91 0.48 72 1005.5
20260507210042 13 0 0.0 11.3 0.00 1.91 0.48 71 1005.4
20260507205527 13 142 0.0 17.7 0.00 1.91 0.48 71 1005.3
20260507205027 14 172 0.0 17.7 0.00 1.91 0.48 68 1005.2
20260507204539 14 153 1.6 17.7 0.00 1.91 0.48 66 1005.1
20260507204028 15 200 1.6 11.3 0.00 1.91 0.48 66 1005.2
20260507203527 15 0 3.2 11.3 0.00 1.91 0.48 66 1004.9
20260507203037 15 0 0.0 17.7 0.00 1.91 0.48 66 1005.1
20260507202526 15 222 4.8 17.7 0.00 1.91 0.48 64 1005.0
20260507202026 15 0 1.6 19.3 0.00 1.91 0.48 64 1005.0
20260507201536 15 249 4.8 19.3 0.00 1.91 0.48 63 1005.0
20260507201026 16 228 1.6 19.3 0.00 1.91 0.48 65 1005.0
20260507200526 16 229 1.6 19.3 0.00 1.91 0.48 66 1005.0
20260507200040 16 282 3.2 19.3 0.00 1.91 0.48 64 1005.0
20260507195527 16 248 1.6 16.1 0.00 1.91 0.48 65 1005.0
20260507195028 16 0 1.6 17.7 0.00 1.91 0.48 64 1005.0
20260507194537 16 0 3.2 17.7 0.00 1.91 0.48 64 1005.1
20260507194026 16 208 4.8 16.1 0.00 1.91 0.48 64 1005.2
20260507193526 16 201 1.6 14.5 0.00 1.91 0.48 65 1005.2
20260507193039 16 204 3.2 17.7 0.00 1.91 0.48 65 1005.2
20260507192526 16 216 4.8 17.7 0.00 1.91 0.48 64 1005.2
20260507192026 16 216 4.8 14.5 0.00 1.91 0.48 67 1005.2
20260507191535 16 0 3.2 16.1 0.00 1.91 0.48 65 1005.2
20260507191027 16 243 4.8 16.1 0.00 1.91 0.48 66 1005.0
20260507190526 16 317 1.6 11.3 0.00 1.91 0.48 68 1005.1
20260507190043 16 245 1.6 25.7 0.00 1.91 0.48 67 1005.0
20260507185528 16 264 3.2 25.7 0.00 1.91 0.48 69 1005.1
20260507185027 16 216 3.2 16.1 0.00 1.91 0.48 70 1005.1
20260507184539 15 202 1.6 16.1 0.00 1.91 0.48 71 1005.1
20260507184027 15 233 1.6 14.5 0.00 1.91 0.48 73 1005.2
20260507183529 15 98 1.6 9.7 0.00 1.91 0.48 72 1005.1
20260507183046 15 86 1.6 14.5 0.00 1.91 0.48 74 1005.1
20260507182527 15 113 1.6 14.5 0.00 1.91 0.48 72 1005.4
20260507182026 15 98 3.2 14.5 0.00 1.91 0.48 72 1005.4
20260507181541 15 80 3.2 14.5 0.00 1.91 0.48 72 1005.4
20260507181029 15 180 3.2 14.5 0.00 1.91 0.48 71 1005.6
20260507180526 14 0 4.8 14.5 0.00 1.91 0.48 71 1005.7
20260507180036 15 105 6.4 14.5 0.00 1.91 0.48 69 1005.9
20260507175526 15 90 4.8 11.3 0.00 1.91 0.48 70 1005.7
20260507175026 15 177 1.6 11.3 0.00 1.91 0.48 72 1005.9
20260507174542 14 0 3.2 11.3 0.00 1.91 0.48 70 1006.0
20260507174028 15 90 1.6 11.3 0.00 1.91 0.48 71 1005.9
20260507173526 15 123 3.2 11.3 0.00 1.91 0.48 72 1005.8
20260507173045 14 89 1.6 11.3 0.00 1.91 0.48 72 1005.9
20260507172557 14 103 1.6 8.0 0.00 1.91 0.48 71 1006.0
20260507172525 14 103 1.6 8.0 0.00 1.91 0.48 71 1006.0
20260507172026 14 0 1.6 8.0 0.00 1.91 0.48 70 1006.0
20260507171544 14 0 1.6 17.7 0.00 1.91 0.48 69 1005.3
20260507171027 15 0 3.2 17.7 0.00 1.91 0.48 71 1006.2
20260507170527 14 90 3.2 11.3 0.00 1.91 0.48 70 1006.1
20260507170038 15 58 3.2 11.3 0.00 1.91 0.48 70 1006.2
20260507165526 15 107 1.6 12.9 0.00 1.91 0.48 70 1006.4
20260507165026 14 98 1.6 12.9 0.00 1.91 0.48 69 1006.4
20260507164543 14 99 1.6 11.3 0.00 1.91 0.48 68 1006.6
20260507164026 14 117 3.2 14.5 0.00 1.91 0.48 70 1006.6
20260507163527 14 88 4.8 14.5 0.00 1.91 0.48 69 1006.6
20260507163043 14 100 4.8 14.5 0.00 1.91 0.48 69 1006.8
20260507162528 14 101 3.2 9.7 0.00 1.91 0.48 69 1006.8
20260507162026 14 101 3.2 12.9 0.00 1.91 0.48 67 1006.9
20260507161542 14 95 1.6 12.9 0.00 1.91 0.48 69 1007.0
20260507161027 13 101 3.2 12.9 0.00 1.91 0.48 71 1007.0
20260507160527 13 94 4.8 12.9 0.00 1.91 0.48 69 1007.1
20260507160047 13 101 4.8 11.3 0.00 1.91 0.48 68 1007.1
20260507155527 13 99 3.2 9.7 0.00 1.91 0.48 69 1007.3
20260507155027 13 101 1.6 11.3 0.00 1.91 0.48 72 1007.4
20260507154537 13 123 1.6 11.3 0.00 1.91 0.48 73 1007.3
20260507154026 12 91 4.8 11.3 0.00 1.91 0.48 73 1007.3
20260507153526 12 96 3.2 14.5 0.00 1.91 0.48 71 1007.3
20260507153038 12 98 3.2 14.5 0.00 1.91 0.48 73 1007.5
20260507152526 12 100 4.8 14.5 0.00 1.91 0.48 74 1007.5
20260507152027 12 109 1.6 11.3 0.00 1.91 0.48 74 1007.8
20260507151535 12 89 3.2 11.3 0.00 1.91 0.48 75 1007.6
20260507151026 12 96 3.2 9.7 0.00 1.91 0.48 74 1007.7
20260507150529 12 95 4.8 11.3 0.00 1.91 0.48 76 1007.7
20260507150036 12 94 4.8 11.3 0.00 1.91 0.48 78 1007.5
20260507145526 12 86 4.8 9.7 0.00 1.91 0.48 76 1007.5
20260507145029 12 99 4.8 9.7 0.00 1.91 0.48 76 1007.6
20260507144536 12 90 3.2 6.4 0.00 1.91 0.48 77 1007.8
20260507144027 12 90 3.2 6.4 0.00 1.91 0.48 77 1007.8
20260507143526 11 90 3.2 6.4 0.00 1.91 0.48 77 1007.8
20260507143039 11 90 4.8 6.4 0.00 1.91 0.48 78 1007.8
20260507142528 11 90 3.2 6.4 0.00 1.91 0.48 78 1008.1
20260507142026 11 90 3.2 9.7 0.00 1.91 0.48 78 1008.2
20260507141542 11 90 3.2 9.7 0.00 1.91 0.48 78 1008.3
20260507141029 11 90 4.8 9.7 0.00 1.91 0.48 78 1008.3
20260507140529 11 90 4.8 9.7 0.00 1.91 0.48 79 1008.3
20260507140037 11 90 4.8 9.7 0.00 1.91 0.48 79 1008.2
20260507135727 11 86 4.8 11.3 0.00 1.91 0.48 79 1008.2
20260507135657 11 86 4.8 11.3 0.00 1.91 0.48 79 1008.2
20260507135627 11 86 4.8 11.3 0.00 1.91 0.48 79 1008.2
20260507135527 11 86 4.8 11.3 0.00 1.91 0.48 79 1008.2
20260507135027 11 82 3.2 11.3 0.00 1.91 0.48 79 1008.1
20260507134538 11 82 3.2 11.3 0.00 1.91 0.48 78 1008.3
20260507134026 11 327 4.8 6.4 0.00 1.91 0.48 78 1008.4
20260507133527 11 267 0.0 6.4 0.00 1.91 0.48 78 1008.3
20260507133040 11 303 0.0 6.4 0.00 1.91 0.48 79 1008.3
20260507132526 11 238 1.6 9.7 0.00 1.91 0.48 79 1008.5
20260507132028 11 238 1.6 11.3 0.00 1.91 0.48 80 1008.6
20260507131537 11 13 3.2 12.9 0.00 1.91 0.48 81 1008.3
20260507131027 11 0 3.2 16.1 0.00 1.91 0.48 81 1008.3
20260507130527 10 15 6.4 16.1 0.00 1.91 0.48 81 1008.2
20260507130047 10 58 1.6 12.9 0.00 1.91 0.48 82 1008.5
20260507125526 10 301 3.2 14.5 0.00 1.91 0.48 83 1008.5
20260507125026 10 0 1.6 16.1 0.00 1.91 0.48 84 1008.2
20260507124548 10 20 4.8 16.1 0.00 1.91 0.48 84 1007.8
20260507124026 10 21 3.2 14.5 0.00 1.91 0.48 85 1007.7
20260507123527 10 292 4.8 17.7 0.00 1.91 0.48 86 1007.6
20260507123339 9 269 4.8 17.7 0.00 1.91 0.48 87 1007.5
20260507123259 9 269 4.8 17.7 0.00 1.91 0.48 87 1007.5
20260507123158 9 269 4.8 17.7 0.00 1.91 0.48 87 1007.5
20260507123128 9 269 4.8 17.7 0.00 1.91 0.48 87 1007.5
20260507123040 9 269 4.8 17.7 0.00 1.91 0.48 87 1007.5
20260507122526 8 0 0.0 8.0 0.00 1.91 0.48 87 1007.2
20260507122026 8 0 0.0 8.0 0.00 1.91 0.48 87 1007.4
20260507121538 8 352 3.2 8.0 0.00 1.91 0.48 88 1007.2
20260507121028 8 0 0.0 8.0 0.00 1.91 0.48 88 1007.7
20260507120532 8 0 3.2 6.4 0.00 1.91 0.48 89 1007.7
20260507120150 8 290 0.0 6.4 0.00 1.91 0.48 89 1007.3
20260507115527 8 0 0.0 6.4 0.00 1.91 0.48 89 1008.1
20260507115031 8 0 0.0 6.4 0.00 1.91 0.48 89 1008.2
20260507114546 8 0 1.6 8.0 0.00 1.91 0.48 90 1007.8
20260507114026 8 340 3.2 8.0 0.00 1.91 0.48 90 1007.6
20260507113526 8 0 0.0 0.0 0.00 1.91 0.48 90 1008.1
20260507113037 8 0 0.0 0.0 0.00 1.91 0.48 90 1008.4
20260507112527 8 0 0.0 0.0 0.00 1.91 0.48 90 1008.1
20260507112026 7 0 0.0 0.0 0.00 1.91 0.48 90 1008.0
20260507111542 7 0 0.0 6.4 0.00 1.91 0.48 91 1008.2
20260507111026 7 0 0.0 8.0 0.00 1.91 0.48 91 1008.1
20260507110527 7 293 1.6 8.0 0.00 1.91 0.48 91 1007.8
20260507110057 7 0 0.0 8.0 0.00 1.91 0.48 91 1007.7
20260507105526 7 0 0.0 11.3 0.00 1.91 0.48 91 1007.6
20260507105027 7 242 1.6 11.3 0.00 1.91 0.48 91 1008.2
20260507104545 7 242 3.2 9.7 0.00 1.91 0.48 91 1007.9
20260507104029 7 0 0.0 4.8 0.00 1.91 0.48 91 1007.1
20260507103527 7 0 0.0 4.8 0.00 1.91 0.48 91 1007.1
20260507103036 7 268 0.0 11.3 0.00 1.91 0.48 91 1007.4
20260507102527 7 0 1.6 11.3 0.00 1.91 0.48 91 1007.3
20260507102029 7 0 0.0 4.8 0.00 1.91 0.48 91 1007.2
20260507101543 7 279 0.0 4.8 0.00 1.91 0.48 91 1006.9
20260507101027 8 0 0.0 6.4 0.00 1.91 0.48 92 1006.9